TAP473H LFLL-LPPT

Flight info

Callsign TAP473H
Flight time 2h 12m
Altitude 37000
Route REPSI DCT LERGA DCT MINSO DCT NARAK DCT AGN DCT PIPOR L866 PPN DCT MIRPO DCT DGO DCT NEA DCT ARDID DCT INBOM
Aircraft A320/M-SDE3FGHIRWY/LB1

Departure

Time 2026-05-04 11:13
Airport Lyon Saint-Exupéry Airport (LFLL)

Arrival

Time 2026-05-04 13:26
Airport Lisbon Humberto Delgado Airport (LPPT)
Time Latitude Longitude Altitude Speed Heading
2026-05-04 10:39 45.71866 5.08082 797 ft 0 kts 309°
2026-05-04 11:01 45.71835 5.08137 797 ft 4 kts 309°
2026-05-04 11:02 45.71821 5.08160 797 ft 4 kts 328°
2026-05-04 11:02 45.71799 5.08166 797 ft 4 kts 28°
2026-05-04 11:05 45.71779 5.08148 797 ft 0 kts 28°
2026-05-04 11:06 45.71787 5.08154 797 ft 5 kts 27°
2026-05-04 11:08 45.72128 5.08440 803 ft 22 kts 354°
2026-05-04 11:10 45.73547 5.08268 780 ft 30 kts 355°
2026-05-04 11:12 45.74649 5.08553 768 ft 9 kts 88°
2026-05-04 11:12 45.74635 5.08599 769 ft 2 kts 161°
2026-05-04 11:12 45.74630 5.08600 769 ft 0 kts 173°
2026-05-04 11:12 45.74593 5.08606 770 ft 18 kts 174°
2026-05-04 11:13 45.74202 5.08653 773 ft 92 kts 175°
2026-05-04 11:13 45.73372 5.08754 787 ft 147 kts 175°
2026-05-04 11:13 45.72266 5.08905 1277 ft 161 kts 173°
2026-05-04 11:13 45.71154 5.09037 2175 ft 160 kts 175°
2026-05-04 11:14 45.70780 5.09080 2475 ft 159 kts 175°
2026-05-04 11:14 45.68661 5.09335 4140 ft 148 kts 175°
2026-05-04 11:16 45.59377 5.05816 8568 ft 258 kts 238°
2026-05-04 11:16 45.58536 5.03493 9391 ft 266 kts 241°
2026-05-04 11:16 45.57737 5.01078 10262 ft 275 kts 248°
2026-05-04 11:17 45.57473 4.98249 10603 ft 305 kts 272°
2026-05-04 11:17 45.58126 4.95231 10997 ft 334 kts 296°
2026-05-04 11:19 45.64013 4.72726 16363 ft 363 kts 277°
2026-05-04 11:19 45.64260 4.69145 17054 ft 363 kts 268°
2026-05-04 11:19 45.64338 4.65513 17717 ft 368 kts 268°
2026-05-04 11:19 45.64416 4.61837 18383 ft 373 kts 268°
2026-05-04 11:20 45.64498 4.58115 18985 ft 376 kts 268°
2026-05-04 11:20 45.64584 4.54415 19613 ft 379 kts 268°
2026-05-04 11:20 45.64680 4.50730 20768 ft 366 kts 268°
2026-05-04 11:20 45.64788 4.47113 21627 ft 364 kts 268°
2026-05-04 11:22 45.65673 4.21115 25820 ft 384 kts 268°
2026-05-04 11:22 45.65806 4.17294 26345 ft 386 kts 268°
2026-05-04 11:23 45.65936 4.13505 26833 ft 388 kts 268°
2026-05-04 11:23 45.65854 4.09675 27301 ft 383 kts 254°
2026-05-04 11:24 45.61030 3.87990 30488 ft 381 kts 248°
2026-05-04 11:25 45.60203 3.84390 30896 ft 383 kts 248°
2026-05-04 11:25 45.59382 3.80830 31369 ft 382 kts 248°
2026-05-04 11:25 45.58555 3.77239 31975 ft 379 kts 248°
2026-05-04 11:26 45.56926 3.70134 33067 ft 375 kts 248°
2026-05-04 11:27 45.50412 3.46708 35765 ft 363 kts 225°
2026-05-04 11:28 45.48643 3.44095 35893 ft 369 kts 224°
2026-05-04 11:28 45.46836 3.41453 36015 ft 375 kts 224°
2026-05-04 11:28 45.45000 3.38780 36145 ft 381 kts 224°
2026-05-04 11:28 45.43134 3.36065 36279 ft 387 kts 224°
2026-05-04 11:29 45.41240 3.33306 36407 ft 392 kts 224°
2026-05-04 11:29 45.39321 3.30511 36544 ft 397 kts 224°
2026-05-04 11:29 45.37406 3.27723 36668 ft 401 kts 225°
2026-05-04 11:29 45.35452 3.24877 36863 ft 403 kts 225°
2026-05-04 11:31 45.21747 3.04977 36992 ft 402 kts 225°
2026-05-04 11:33 45.08037 2.85242 36993 ft 402 kts 225°
2026-05-04 11:33 45.04108 2.79623 36994 ft 401 kts 225°
2026-05-04 11:34 45.00219 2.74051 36991 ft 401 kts 225°
2026-05-04 11:34 44.96297 2.68456 36996 ft 401 kts 225°
2026-05-04 11:35 44.92366 2.62866 37017 ft 401 kts 225°
2026-05-04 11:35 44.88443 2.57289 37015 ft 400 kts 225°
2026-05-04 11:36 44.84545 2.51756 37012 ft 400 kts 225°
2026-05-04 11:36 44.80626 2.46195 37009 ft 400 kts 225°
2026-05-04 11:37 44.76696 2.40645 37004 ft 400 kts 225°
2026-05-04 11:37 44.72759 2.35104 37001 ft 400 kts 224°
2026-05-04 11:38 44.68819 2.29575 36998 ft 400 kts 224°
2026-05-04 11:38 44.64914 2.24087 37004 ft 400 kts 224°
2026-05-04 11:39 44.60970 2.18561 36996 ft 400 kts 224°
2026-05-04 11:41 44.47183 1.99312 36976 ft 400 kts 224°
2026-05-04 11:41 44.43227 1.93826 36973 ft 400 kts 224°
2026-05-04 11:42 44.39270 1.88349 36974 ft 400 kts 224°
2026-05-04 11:42 44.35312 1.82880 36969 ft 400 kts 224°
2026-05-04 11:43 44.31383 1.77452 36970 ft 400 kts 224°
2026-05-04 11:43 44.27923 1.71396 36968 ft 401 kts 236°
2026-05-04 11:44 44.24921 1.64823 36962 ft 402 kts 236°
2026-05-04 11:44 44.21902 1.58275 36965 ft 402 kts 235°
2026-05-04 11:45 44.18897 1.51775 36984 ft 401 kts 236°
2026-05-04 11:45 44.15878 1.45236 36966 ft 402 kts 236°
2026-05-04 11:46 44.12852 1.38688 36960 ft 403 kts 235°
2026-05-04 11:46 44.09813 1.32148 36953 ft 402 kts 235°
2026-05-04 11:47 44.06790 1.25665 36952 ft 402 kts 235°
2026-05-04 11:47 44.03750 1.19145 36951 ft 402 kts 235°
2026-05-04 11:48 44.00705 1.12626 36965 ft 402 kts 235°
2026-05-04 11:48 43.97656 1.06102 36957 ft 403 kts 235°
2026-05-04 11:49 43.94597 0.99581 36955 ft 403 kts 235°
2026-05-04 11:49 43.91550 0.93106 36954 ft 403 kts 235°
2026-05-04 11:50 43.88475 0.86596 36956 ft 404 kts 236°
2026-05-04 11:50 43.85543 0.79958 36956 ft 404 kts 238°
2026-05-04 11:51 43.82719 0.73227 36964 ft 404 kts 238°
2026-05-04 11:51 43.79873 0.66509 36963 ft 405 kts 237°
2026-05-04 11:52 43.77008 0.59868 36961 ft 405 kts 237°
2026-05-04 11:52 43.74104 0.53195 36958 ft 405 kts 237°
2026-05-04 11:53 43.71199 0.46527 36967 ft 405 kts 237°
2026-05-04 11:53 43.68301 0.39862 36970 ft 405 kts 237°
2026-05-04 11:55 43.56664 0.13276 36978 ft 405 kts 237°
2026-05-04 11:56 43.53748 0.06635 36972 ft 405 kts 237°
2026-05-04 11:56 43.50842 0.00047 36962 ft 405 kts 237°
2026-05-04 11:57 43.47901 -0.06592 36995 ft 406 kts 237°
2026-05-04 11:57 43.44950 -0.13223 36993 ft 406 kts 237°
2026-05-04 11:58 43.42001 -0.19855 36982 ft 406 kts 237°
2026-05-04 11:58 43.39085 -0.26426 37004 ft 405 kts 237°
2026-05-04 11:59 43.36145 -0.33022 37020 ft 404 kts 237°
2026-05-04 11:59 43.33196 -0.39594 37023 ft 404 kts 236°
2026-05-04 12:00 43.30251 -0.46155 37009 ft 403 kts 236°
2026-05-04 12:00 43.27329 -0.52671 37001 ft 403 kts 237°
2026-05-04 12:01 43.24385 -0.59212 37005 ft 403 kts 236°
2026-05-04 12:02 43.14094 -0.81958 36986 ft 401 kts 236°
2026-05-04 12:03 43.11135 -0.88450 36977 ft 402 kts 236°
2026-05-04 12:03 43.08172 -0.94948 36971 ft 402 kts 236°
2026-05-04 12:04 43.05205 -1.01444 36976 ft 403 kts 236°
2026-05-04 12:04 43.02250 -1.07891 36975 ft 403 kts 236°
2026-05-04 12:05 42.99274 -1.14375 36967 ft 403 kts 236°
2026-05-04 12:05 42.96294 -1.20851 36979 ft 403 kts 236°
2026-05-04 12:06 42.93309 -1.27328 36980 ft 403 kts 236°
2026-05-04 12:06 42.90315 -1.33809 36977 ft 404 kts 236°
2026-05-04 12:07 42.87333 -1.40251 36970 ft 404 kts 236°
2026-05-04 12:07 42.84326 -1.46726 36966 ft 405 kts 236°
2026-05-04 12:08 42.81307 -1.53210 37004 ft 405 kts 236°
2026-05-04 12:08 42.78280 -1.59688 36974 ft 406 kts 236°
2026-05-04 12:09 42.75244 -1.66176 36970 ft 407 kts 236°
2026-05-04 12:09 42.72736 -1.73024 36960 ft 411 kts 250°
2026-05-04 12:10 42.71087 -1.80480 36967 ft 412 kts 250°
2026-05-04 12:10 42.69395 -1.87934 36994 ft 413 kts 250°
2026-05-04 12:11 42.67698 -1.95386 36993 ft 413 kts 250°
2026-05-04 12:11 42.66011 -2.02804 36992 ft 414 kts 250°
2026-05-04 12:12 42.64309 -2.10278 37003 ft 414 kts 250°
2026-05-04 12:12 42.62595 -2.17756 37008 ft 415 kts 250°
2026-05-04 12:14 42.55355 -2.47450 36991 ft 416 kts 249°
2026-05-04 12:15 42.53528 -2.54899 37006 ft 416 kts 249°
2026-05-04 12:15 42.51703 -2.62352 37008 ft 416 kts 249°
2026-05-04 12:16 42.49869 -2.69792 37011 ft 416 kts 250°
2026-05-04 12:16 42.48037 -2.77180 37008 ft 417 kts 250°
2026-05-04 12:17 42.46189 -2.84635 37002 ft 417 kts 250°
2026-05-04 12:17 42.44038 -2.91906 37002 ft 416 kts 244°
2026-05-04 12:18 42.41612 -2.99027 37004 ft 417 kts 244°
2026-05-04 12:18 42.39198 -3.06097 37015 ft 417 kts 244°
2026-05-04 12:19 42.36765 -3.13226 37013 ft 418 kts 244°
2026-05-04 12:19 42.34330 -3.20359 37009 ft 417 kts 244°
2026-05-04 12:20 42.31886 -3.27472 37023 ft 417 kts 244°
2026-05-04 12:20 42.29454 -3.34526 37026 ft 417 kts 244°
2026-05-04 12:21 42.27001 -3.41621 37032 ft 417 kts 244°
2026-05-04 12:21 42.24548 -3.48713 37042 ft 417 kts 244°
2026-05-04 12:22 42.22089 -3.55809 37034 ft 417 kts 244°
2026-05-04 12:22 42.19641 -3.62850 37030 ft 418 kts 244°
2026-05-04 12:23 42.17168 -3.69937 37016 ft 418 kts 244°
2026-05-04 12:23 42.14693 -3.77019 37017 ft 418 kts 244°
2026-05-04 12:24 42.12211 -3.84097 37021 ft 418 kts 245°
2026-05-04 12:24 42.09734 -3.91168 37023 ft 417 kts 245°
2026-05-04 12:25 42.07268 -3.98177 37022 ft 417 kts 244°
2026-05-04 12:25 42.04780 -4.05219 37021 ft 417 kts 244°
2026-05-04 12:26 42.02276 -4.12252 37018 ft 417 kts 244°
2026-05-04 12:26 41.99672 -4.19210 37017 ft 417 kts 243°
2026-05-04 12:27 41.97021 -4.26077 37016 ft 417 kts 243°
2026-05-04 12:27 41.94362 -4.32989 37017 ft 417 kts 243°
2026-05-04 12:28 41.91721 -4.39914 37014 ft 416 kts 243°
2026-05-04 12:28 41.89081 -4.46828 37001 ft 416 kts 243°
2026-05-04 12:29 41.86448 -4.53682 37011 ft 416 kts 243°
2026-05-04 12:29 41.83795 -4.60564 37021 ft 415 kts 243°
2026-05-04 12:30 41.81138 -4.67443 37021 ft 415 kts 243°
2026-05-04 12:30 41.78485 -4.74320 37007 ft 415 kts 243°
2026-05-04 12:31 41.75848 -4.81140 37009 ft 415 kts 243°
2026-05-04 12:31 41.73183 -4.88002 37007 ft 415 kts 243°
2026-05-04 12:32 41.69175 -4.98280 37012 ft 415 kts 243°
2026-05-04 12:33 41.66499 -5.05132 37008 ft 415 kts 243°
2026-05-04 12:33 41.63842 -5.11921 37003 ft 415 kts 243°
2026-05-04 12:34 41.61162 -5.18752 37018 ft 415 kts 243°
2026-05-04 12:34 41.58482 -5.25564 37013 ft 414 kts 243°
2026-05-04 12:35 41.55793 -5.32368 37016 ft 414 kts 243°
2026-05-04 12:35 41.53125 -5.39122 37011 ft 414 kts 243°
2026-05-04 12:36 41.50438 -5.45917 37008 ft 414 kts 243°
2026-05-04 12:36 41.47736 -5.52705 37008 ft 414 kts 243°
2026-05-04 12:37 41.45032 -5.59496 37009 ft 414 kts 243°
2026-05-04 12:37 41.42350 -5.66235 37011 ft 414 kts 243°
2026-05-04 12:38 41.39642 -5.73009 37009 ft 414 kts 243°
2026-05-04 12:38 41.36930 -5.79776 37013 ft 414 kts 243°
2026-05-04 12:39 41.34218 -5.86528 37011 ft 414 kts 243°
2026-05-04 12:39 41.31498 -5.93278 37018 ft 414 kts 243°
2026-05-04 12:40 41.28798 -5.99976 37020 ft 414 kts 243°
2026-05-04 12:40 41.26065 -6.06719 37016 ft 414 kts 243°
2026-05-04 12:41 41.23335 -6.13457 37021 ft 414 kts 243°
2026-05-04 12:41 41.20604 -6.20181 37031 ft 414 kts 243°
2026-05-04 12:42 41.17887 -6.26853 37029 ft 413 kts 243°
2026-05-04 12:42 41.14588 -6.33124 37010 ft 415 kts 236°
2026-05-04 12:43 41.11132 -6.39249 37025 ft 414 kts 236°
2026-05-04 12:43 41.07683 -6.45361 37025 ft 414 kts 236°
2026-05-04 12:44 41.04231 -6.51466 37033 ft 414 kts 236°
2026-05-04 12:44 41.00807 -6.57522 37027 ft 413 kts 236°
2026-05-04 12:45 40.97355 -6.63606 37025 ft 413 kts 236°
2026-05-04 12:45 40.93903 -6.69677 37026 ft 413 kts 236°
2026-05-04 12:46 40.90448 -6.75747 37011 ft 412 kts 236°
2026-05-04 12:46 40.87023 -6.81753 37020 ft 412 kts 236°
2026-05-04 12:47 40.83574 -6.87791 37021 ft 412 kts 236°
2026-05-04 12:47 40.80123 -6.93819 37024 ft 412 kts 236°
2026-05-04 12:48 40.76693 -6.99805 37029 ft 412 kts 236°
2026-05-04 12:48 40.73237 -7.05816 37029 ft 411 kts 236°
2026-05-04 12:49 40.69770 -7.11820 37032 ft 412 kts 236°
2026-05-04 12:49 40.66301 -7.17819 37025 ft 411 kts 236°
2026-05-04 12:50 40.62842 -7.23806 37016 ft 411 kts 236°
2026-05-04 12:50 40.59398 -7.29753 37027 ft 412 kts 236°
2026-05-04 12:51 40.55922 -7.35739 37028 ft 412 kts 236°
2026-05-04 12:51 40.52437 -7.41730 37034 ft 412 kts 236°
2026-05-04 12:52 40.48950 -7.47715 37048 ft 413 kts 235°
2026-05-04 12:52 40.45455 -7.53700 37047 ft 413 kts 236°
2026-05-04 12:53 40.41979 -7.59638 37061 ft 413 kts 235°
2026-05-04 12:53 40.38471 -7.65613 37056 ft 413 kts 236°
2026-05-04 12:54 40.34964 -7.71591 37063 ft 414 kts 236°
2026-05-04 12:54 40.31459 -7.77568 37058 ft 413 kts 236°
2026-05-04 12:55 40.27923 -7.83568 36943 ft 423 kts 235°
2026-05-04 12:55 40.26152 -7.86558 36695 ft 418 kts 235°
2026-05-04 12:55 40.24377 -7.89551 36108 ft 415 kts 236°
2026-05-04 12:55 40.22612 -7.92531 35487 ft 413 kts 236°
2026-05-04 12:56 40.20841 -7.95525 34905 ft 418 kts 236°
2026-05-04 12:56 40.19069 -7.98520 34292 ft 415 kts 236°
2026-05-04 12:56 40.17309 -8.01487 33647 ft 412 kts 236°
2026-05-04 12:56 40.15558 -8.04433 32972 ft 408 kts 236°
2026-05-04 12:57 40.13822 -8.07347 32325 ft 405 kts 236°
2026-05-04 12:57 40.12097 -8.10238 31691 ft 401 kts 236°
2026-05-04 12:57 40.10390 -8.13099 31062 ft 398 kts 236°
2026-05-04 12:57 40.08724 -8.15896 30523 ft 393 kts 236°
2026-05-04 12:58 40.07056 -8.18697 30046 ft 387 kts 237°
2026-05-04 12:58 40.05427 -8.21424 29718 ft 375 kts 236°
2026-05-04 12:58 40.03837 -8.24081 29434 ft 369 kts 236°
2026-05-04 12:58 40.02111 -8.26564 29165 ft 372 kts 227°
2026-05-04 12:59 40.00024 -8.28602 29055 ft 378 kts 216°
2026-05-04 12:59 39.95052 -8.30978 29048 ft 383 kts 195°
2026-05-04 13:00 39.89819 -8.31784 29081 ft 380 kts 193°
2026-05-04 13:00 39.84582 -8.32595 29085 ft 379 kts 194°
2026-05-04 13:01 39.79350 -8.33406 29080 ft 379 kts 194°
2026-05-04 13:01 39.74118 -8.34209 29078 ft 378 kts 193°
2026-05-04 13:01 39.71553 -8.34823 29065 ft 371 kts 204°
2026-05-04 13:02 39.69205 -8.36108 29089 ft 363 kts 217°
2026-05-04 13:02 39.67173 -8.37984 29083 ft 355 kts 228°
2026-05-04 13:02 39.65526 -8.40321 29084 ft 348 kts 238°
2026-05-04 13:03 39.62666 -8.45189 29081 ft 338 kts 238°
2026-05-04 13:03 39.59888 -8.49868 29086 ft 314 kts 238°
2026-05-04 13:04 39.56765 -8.53748 29089 ft 316 kts 219°
2026-05-04 13:04 39.53149 -8.56907 28934 ft 309 kts 226°
2026-05-04 13:04 39.51481 -8.58660 28446 ft 309 kts 226°
2026-05-04 13:05 39.49817 -8.60441 27841 ft 313 kts 226°
2026-05-04 13:05 39.48129 -8.62259 27171 ft 318 kts 226°
2026-05-04 13:05 39.46420 -8.64101 26554 ft 322 kts 226°
2026-05-04 13:05 39.44684 -8.65963 25950 ft 326 kts 226°
2026-05-04 13:06 39.42926 -8.67840 25361 ft 329 kts 225°
2026-05-04 13:06 39.41177 -8.69702 24795 ft 332 kts 225°
2026-05-04 13:06 39.39388 -8.71605 24220 ft 334 kts 225°
2026-05-04 13:06 39.37589 -8.73517 23722 ft 334 kts 225°
2026-05-04 13:07 39.35796 -8.75416 23235 ft 332 kts 225°
2026-05-04 13:07 39.34018 -8.77297 22763 ft 329 kts 225°
2026-05-04 13:07 39.32252 -8.79164 22316 ft 327 kts 225°
2026-05-04 13:07 39.30497 -8.81019 21876 ft 325 kts 225°
2026-05-04 13:08 39.28758 -8.82863 21430 ft 322 kts 225°
2026-05-04 13:08 39.27031 -8.84694 21011 ft 320 kts 225°
2026-05-04 13:08 39.25339 -8.86487 20614 ft 318 kts 224°
2026-05-04 13:08 39.23635 -8.88291 20180 ft 316 kts 224°
2026-05-04 13:09 39.21938 -8.90086 19771 ft 315 kts 224°
2026-05-04 13:09 39.20250 -8.91867 19387 ft 313 kts 224°
2026-05-04 13:09 39.18570 -8.93640 19022 ft 311 kts 224°
2026-05-04 13:09 39.16900 -8.95402 18663 ft 309 kts 224°
2026-05-04 13:10 39.15242 -8.97152 18285 ft 308 kts 224°
2026-05-04 13:10 39.13589 -8.98896 17874 ft 306 kts 224°
2026-05-04 13:10 39.12501 -9.00045 17622 ft 305 kts 224°
2026-05-04 13:10 39.10863 -9.01770 17240 ft 303 kts 224°
2026-05-04 13:11 39.08706 -9.04035 16753 ft 302 kts 224°
2026-05-04 13:11 39.07081 -9.05738 16396 ft 301 kts 224°
2026-05-04 13:11 39.05461 -9.07435 16046 ft 299 kts 224°
2026-05-04 13:11 39.03852 -9.09122 15701 ft 298 kts 224°
2026-05-04 13:12 39.02249 -9.10804 15353 ft 297 kts 224°
2026-05-04 13:12 39.01189 -9.11916 15132 ft 297 kts 224°
2026-05-04 13:12 38.99596 -9.13584 14803 ft 295 kts 224°
2026-05-04 13:12 38.98006 -9.15246 14463 ft 294 kts 224°
2026-05-04 13:13 38.95909 -9.17441 14007 ft 293 kts 224°
2026-05-04 13:13 38.94334 -9.19088 13648 ft 292 kts 224°
2026-05-04 13:13 38.92761 -9.20734 13297 ft 291 kts 223°
2026-05-04 13:13 38.91702 -9.21842 13064 ft 290 kts 223°
2026-05-04 13:14 38.90160 -9.23455 12718 ft 290 kts 223°
2026-05-04 13:14 38.88596 -9.25088 12360 ft 289 kts 223°
2026-05-04 13:14 38.87036 -9.26712 11999 ft 289 kts 223°
2026-05-04 13:14 38.85479 -9.28333 11630 ft 288 kts 223°
2026-05-04 13:15 38.83928 -9.29950 11274 ft 287 kts 223°
2026-05-04 13:15 38.82384 -9.31564 10904 ft 286 kts 223°
2026-05-04 13:15 38.80844 -9.33170 10533 ft 285 kts 223°
2026-05-04 13:15 38.79308 -9.34768 10156 ft 284 kts 222°
2026-05-04 13:16 38.77768 -9.36365 9708 ft 284 kts 223°
2026-05-04 13:16 38.76256 -9.37934 9296 ft 283 kts 223°
2026-05-04 13:16 38.74746 -9.39499 9119 ft 273 kts 223°
2026-05-04 13:16 38.73295 -9.40998 8975 ft 263 kts 222°
2026-05-04 13:17 38.71902 -9.42438 8846 ft 252 kts 222°
2026-05-04 13:17 38.70565 -9.43821 8714 ft 242 kts 222°
2026-05-04 13:17 38.69280 -9.45149 8582 ft 233 kts 223°
2026-05-04 13:17 38.68037 -9.46432 8361 ft 227 kts 223°
2026-05-04 13:18 38.66764 -9.47623 8074 ft 229 kts 210°
2026-05-04 13:18 38.65217 -9.48096 7616 ft 239 kts 179°
2026-05-04 13:18 38.63625 -9.47478 7232 ft 244 kts 146°
2026-05-04 13:18 38.62498 -9.45893 6888 ft 242 kts 114°
2026-05-04 13:19 38.62053 -9.43836 6444 ft 244 kts 97°
2026-05-04 13:19 38.61751 -9.41671 5983 ft 249 kts 97°
2026-05-04 13:19 38.61453 -9.39502 5651 ft 247 kts 97°
2026-05-04 13:19 38.61156 -9.37351 5308 ft 245 kts 97°
2026-05-04 13:20 38.60859 -9.35213 4957 ft 244 kts 97°
2026-05-04 13:20 38.60561 -9.33079 4595 ft 244 kts 96°
2026-05-04 13:20 38.60268 -9.30987 4380 ft 237 kts 96°
2026-05-04 13:20 38.59980 -9.28951 4253 ft 228 kts 97°
2026-05-04 13:21 38.59802 -9.26966 4037 ft 222 kts 83°
2026-05-04 13:21 38.60108 -9.25094 3881 ft 211 kts 64°
2026-05-04 13:21 38.60834 -9.23524 3702 ft 201 kts 45°
2026-05-04 13:21 38.61838 -9.22381 3495 ft 188 kts 29°
2026-05-04 13:22 38.62976 -9.21677 3258 ft 176 kts 18°
2026-05-04 13:22 38.64078 -9.21090 3027 ft 167 kts 18°
2026-05-04 13:22 38.65129 -9.20531 2810 ft 160 kts 17°
2026-05-04 13:22 38.66106 -9.20011 2602 ft 150 kts 17°
2026-05-04 13:23 38.67053 -9.19509 2369 ft 145 kts 18°
2026-05-04 13:23 38.67971 -9.19018 2192 ft 140 kts 15°
2026-05-04 13:23 38.68862 -9.18541 2001 ft 139 kts 18°
2026-05-04 13:23 38.69754 -9.18066 1822 ft 138 kts 17°
2026-05-04 13:24 38.70653 -9.17587 1649 ft 141 kts 15°
2026-05-04 13:24 38.71566 -9.17102 1457 ft 142 kts 16°
2026-05-04 13:24 38.72470 -9.16618 1268 ft 140 kts 16°
2026-05-04 13:25 38.74291 -9.15644 875 ft 142 kts 20°
2026-05-04 13:25 38.75192 -9.15163 691 ft 141 kts 17°
2026-05-04 13:25 38.76102 -9.14680 490 ft 144 kts 17°
2026-05-04 13:25 38.77031 -9.14181 356 ft 140 kts 21°
2026-05-04 13:26 38.77790 -9.13776 362 ft 94 kts 22°
2026-05-04 13:26 38.78187 -9.13559 369 ft 38 kts 28°
2026-05-04 13:26 38.78366 -9.13359 363 ft 20 kts 54°
2026-05-04 13:26 38.78367 -9.13282 365 ft 7 kts 118°
2026-05-04 13:27 38.78319 -9.13265 361 ft 8 kts 197°
2026-05-04 13:27 38.78266 -9.13294 363 ft 8 kts 202°
2026-05-04 13:27 38.78211 -9.13322 362 ft 9 kts 201°
2026-05-04 13:27 38.78156 -9.13351 362 ft 8 kts 202°
2026-05-04 13:28 38.78103 -9.13379 358 ft 8 kts 202°
2026-05-04 13:28 38.78053 -9.13406 358 ft 8 kts 202°
2026-05-04 13:28 38.77995 -9.13409 356 ft 10 kts 169°
2026-05-04 13:28 38.77915 -9.13387 351 ft 14 kts 168°
2026-05-04 13:29 38.77812 -9.13360 347 ft 16 kts 169°
2026-05-04 13:29 38.77690 -9.13327 337 ft 20 kts 168°
2026-05-04 13:29 38.77572 -9.13317 338 ft 14 kts 174°
2026-05-04 13:29 38.77478 -9.13293 336 ft 14 kts 167°
2026-05-04 13:30 38.77388 -9.13269 338 ft 13 kts 170°
2026-05-04 13:30 38.77302 -9.13252 338 ft 12 kts 170°
2026-05-04 13:30 38.77220 -9.13231 335 ft 12 kts 168°
2026-05-04 13:30 38.77143 -9.13210 338 ft 11 kts 168°
2026-05-04 13:31 38.77071 -9.13191 339 ft 10 kts 168°
2026-05-04 13:31 38.77003 -9.13173 339 ft 10 kts 168°
2026-05-04 13:31 38.76940 -9.13155 337 ft 9 kts 168°
2026-05-04 13:31 38.76883 -9.13133 337 ft 8 kts 136°
2026-05-04 13:32 38.76888 -9.13073 337 ft 4 kts 77°
2026-05-04 13:32 38.76889 -9.13062 336 ft 1 kts 78°
2026-05-04 13:32 38.76891 -9.13056 333 ft 1 kts 77°
2026-05-04 13:32 38.76891 -9.13053 334 ft 0 kts 77°
2026-05-04 13:33 38.76891 -9.13051 334 ft 0 kts 77°